Location: Newark
(47.0667°N, 8.7500°E)
Time: 00:32:01
(UTC+00:00)

N. Korean satellite - Visible Passes

Search period start: 21 October 2019 00:00
Search period end: 31 October 2019 00:00
Orbit: 455 x 508 km, 97.2° (Epoch: 20 October)

Date Brightness Start Highest point End Pass type
(mag) Time Alt. Az. Time Alt. Az. Time Alt. Az.
21 Oct 10.1 04:24:12 10° NE 04:26:27 15° E 04:28:41 10° SE visible
22 Oct 10.5 17:45:48 10° WSW 17:46:37 11° W 17:47:25 10° WNW visible
23 Oct 7.9 05:05:56 10° NNE 05:09:28 47° E 05:13:01 10° S visible
23 Oct 9.6 17:18:25 10° SW 17:21:04 21° W 17:23:45 10° NW visible
24 Oct 9.3 04:41:01 10° NE 04:44:03 24° E 04:47:05 10° SSE visible
24 Oct 8.1 16:52:20 10° S 16:55:37 41° W 16:58:56 10° NNW visible
25 Oct 10.2 04:16:46 10° ENE 04:18:32 13° E 04:20:18 10° ESE visible
26 Oct 6.8 05:23:16 10° NNE 05:26:57 79° ESE 05:30:38 10° S visible
26 Oct 10.1 17:36:55 10° WSW 17:38:38 13° W 17:40:23 10° WNW visible
27 Oct 8.3 04:58:07 10° NNE 05:01:34 38° E 05:05:03 10° SSE visible
27 Oct 9.2 17:10:12 10° SSW 17:13:06 25° W 17:16:05 10° NW visible
28 Oct 9.6 04:33:19 10° NE 04:36:07 20° E 04:38:56 10° SE visible
28 Oct 7.5 16:44:18 10° S 16:47:41 51° W 16:51:08 10° NNW visible
29 Oct 10.5 04:09:38 10° ENE 04:10:34 11° E 04:11:31 10° ESE visible
30 Oct 7.2 05:15:22 10° NNE 05:19:03 63° E 05:22:44 10° S visible
30 Oct 9.9 17:28:22 10° SW 17:30:38 16° W 17:32:56 10° NW visible
